EW6193 Weather Reports


Display with metric or nautical units.
time (UTC)temp
F
wind
direction
speed
MPH
gust
MPH
rain 1hr
in
rain 24hr
in
rain mn
in
humidity
%
barometer
mb
20260831153049 34 272 0.0 2.0 0.00 0.00 0.00 91 1007.0
20260831151545 34 107 0.0 3.0 0.00 0.00 0.00 90 1006.8
20260831150042 34 275 1.0 3.0 0.00 0.00 0.00 90 1006.8
20260831144539 34 274 0.0 0.0 0.00 0.00 0.00 90 1006.5
20260831143037 34 274 0.0 1.0 0.00 0.00 0.00 89 1006.7
20260831141536 35 274 0.0 2.0 0.00 0.00 0.00 89 1006.7
20260831140033 35 337 0.0 2.0 0.00 0.00 0.00 88 1006.3
20260831134527 37 113 0.0 3.0 0.00 0.00 0.00 88 1006.3
20260831133029 37 62 0.0 3.0 0.00 0.00 0.00 86 1006.0
20260831131520 38 67 3.0 5.0 0.00 0.00 0.00 86 1005.7
20260831130015 39 226 0.0 2.0 0.00 0.00 0.00 84 1005.8
20260831124513 40 126 0.0 2.0 0.00 0.00 0.00 84 1005.3
20260831123015 40 66 2.0 5.0 0.00 0.00 0.00 85 1005.1
20260831121506 40 118 0.0 1.0 0.00 0.00 0.00 84 1005.0
20260831120004 41 64 2.0 6.0 0.00 0.00 0.00 84 1004.8
20260831114501 41 61 3.0 7.0 0.00 0.00 0.00 85 1004.5
20260831113103 41 229 0.0 5.0 0.00 0.00 0.00 85 1004.5
20260831111558 41 89 3.0 8.0 0.00 0.00 0.00 85 1004.2
20260831110056 41 17 6.0 10.0 0.00 0.00 0.00 85 1004.0
20260831104607 42 331 0.0 5.0 0.00 0.00 0.00 85 1004.2
20260831103055 42 67 3.0 17.0 0.00 0.00 0.00 85 1003.7
20260831101551 42 37 5.0 8.0 0.00 0.00 0.00 85 1003.7
20260831094546 42 20 4.0 11.0 0.00 0.00 0.00 86 1003.6
20260831093047 42 12 5.0 11.0 0.00 0.00 0.00 86 1003.5
20260831091543 42 22 8.0 12.0 0.00 0.00 0.00 86 1003.3
20260831090041 42 344 5.0 11.0 0.00 0.00 0.00 86 1003.2
20260831084540 43 25 2.0 6.0 0.00 0.00 0.00 87 1002.9
20260831083042 43 44 2.0 8.0 0.00 0.00 0.00 86 1002.9
20260831081530 44 32 6.0 10.0 0.00 0.00 0.00 87 1002.3
20260831080035 44 39 4.0 10.0 0.00 0.00 0.00 85 1001.9
20260831074521 44 60 4.0 8.0 0.00 0.00 0.00 82 1001.4
20260831073020 45 72 3.0 8.0 0.00 0.00 0.00 78 1001.1
20260831071512 49 285 0.0 2.0 0.00 0.00 0.00 60 1000.5
20260831070008 50 281 0.0 3.0 0.00 0.00 0.00 58 999.9
20260831064504 50 280 2.0 6.0 0.00 0.00 0.00 57 999.2
20260831063100 51 314 3.0 10.0 0.00 0.00 0.00 56 998.9
20260831061557 51 296 4.0 8.0 0.00 0.00 0.00 54 998.5
20260831060054 53 266 6.0 13.0 0.00 0.00 0.00 50 998.0
20260831054553 54 267 8.0 18.0 0.00 0.00 0.00 48 997.7
20260831053051 54 276 10.0 22.0 0.00 0.00 0.00 47 997.4
20260831051553 54 285 9.0 24.0 0.00 0.00 0.00 48 997.3
20260831050048 56 284 9.0 20.0 0.00 0.00 0.00 49 997.0
20260831044554 57 263 4.0 16.0 0.00 0.00 0.00 53 997.3
20260831043047 57 283 3.0 12.0 0.00 0.00 0.00 51 997.3
20260831041558 58 249 7.0 17.0 0.00 0.00 0.00 49 996.7
20260831040045 59 288 7.0 15.0 0.00 0.00 0.00 48 996.7
20260831034545 60 263 6.0 15.0 0.00 0.00 0.00 45 996.4
20260831033043 60 252 7.0 17.0 0.00 0.00 0.00 43 996.0
20260831031542 60 228 7.0 17.0 0.00 0.00 0.00 42 995.7
20260831030041 61 277 6.0 21.0 0.00 0.00 0.00 44 995.3
20260831024541 61 177 4.0 13.0 0.00 0.00 0.00 46 995.5
20260831023039 62 228 7.0 14.0 0.00 0.00 0.00 45 995.2
20260831021539 62 259 5.0 17.0 0.00 0.00 0.00 46 995.0
20260831020035 62 274 5.0 16.0 0.00 0.00 0.00 46 995.1
20260831014545 62 189 5.0 17.0 0.00 0.00 0.00 45 995.2
20260831013036 62 239 5.0 16.0 0.00 0.00 0.00 45 995.0
20260831011534 62 268 6.0 19.0 0.00 0.00 0.00 44 994.9
20260831010029 62 248 5.0 16.0 0.00 0.00 0.00 45 995.2
20260831004528 62 287 5.0 15.0 0.00 0.00 0.00 44 995.5
20260831003027 62 358 7.0 20.0 0.00 0.00 0.00 43 995.4
20260831001526 62 240 8.0 18.0 0.00 0.00 0.00 42 995.7
20260831000037 62 216 6.0 21.0 0.00 0.00 0.00 44 995.5
20260830234525 61 239 6.0 21.0 0.00 0.00 0.00 44 995.4
20260830233034 62 219 8.0 18.0 0.00 0.00 0.00 43 995.4
20260830231530 61 286 6.0 22.0 0.00 0.00 0.00 44 995.2
20260830230021 62 290 8.0 17.0 0.00 0.00 0.00 44 995.1
20260830224521 62 268 8.0 17.0 0.00 0.00 0.00 46 995.1
20260830223019 61 223 7.0 15.0 0.00 0.00 0.00 46 995.1
20260830221517 61 271 6.0 16.0 0.00 0.00 0.00 47 995.1
20260830220017 60 293 7.0 17.0 0.00 0.00 0.00 46 995.0
20260830214512 60 255 8.0 17.0 0.00 0.00 0.00 46 995.1
20260830213009 60 165 5.0 17.0 0.00 0.00 0.00 49 995.4
20260830211514 60 297 5.0 14.0 0.00 0.00 0.00 51 995.5
20260830210006 59 270 6.0 15.0 0.00 0.00 0.00 50 995.5
20260830204504 59 241 6.0 14.0 0.00 0.00 0.00 51 995.6
20260830203001 58 281 5.0 13.0 0.00 0.00 0.00 53 995.7
20260830201558 56 259 5.0 11.0 0.00 0.00 0.00 58 995.9
20260830200052 54 271 3.0 9.0 0.00 0.00 0.00 64 995.8
20260830194549 53 264 5.0 10.0 0.00 0.00 0.00 67 995.7
20260830193048 52 271 5.0 12.0 0.00 0.00 0.00 67 995.9
20260830191543 0 276 5.0 0.0 0.00 0.00 0.00 995.9
20260830190039 0 0.0 0.0 0.00 0.00 0.00 995.8
20260830184535 0 0.0 0.0 0.00 0.00 0.00 995.9
20260830183030 0 0.0 0.0 0.00 0.00 0.00 996.1
20260830181526 0 0.0 0.0 0.00 0.00 0.00 996.0
20260830180022 0 0.0 0.0 0.00 0.00 0.00 995.9
20260830174519 0 0.0 0.0 0.00 0.00 0.00 995.5
20260830173012 0 0.0 0.0 0.00 0.00 0.00 995.4
20260830171508 0 0.0 0.0 0.00 0.00 0.00 995.7
20260830170003 0 0.0 0.0 0.00 0.00 0.00 995.6
20260830164610 0 0.0 0.0 0.00 0.00 0.00 995.6
20260830163055 0 0.0 0.0 0.00 0.00 0.00 995.9
20260830161551 0 0.0 0.0 0.00 0.00 0.00 995.9
20260830160046 0 0.0 0.0 0.00 0.00 0.00 995.6
20260830154542 0 0.0 0.0 0.00 0.00 0.00 995.7